GEFSGL_prec_meanprecacc_288.txt.gz
Total_Precipitation_Accumulation
1.36 1.41 1.44 1.46 1.59 1.79 1.96 2.06 2.01 2.05 2.11 2.06 1.92 1.83 1.78 1.69 1.68 1.69 1.66 1.69 1.74 1.73 1.73 1.70 1.61 1.54 1.61 1.63 1.63 1.68 1.77 1.90 1.84 1.34 1.12 1.08 1.10 1.05 1.04 0.97 0.89 0.87 0.84
1.42 1.41 1.44 1.43 1.41 1.51 1.63 1.83 1.90 1.98 2.00 2.04 1.98 1.85 1.76 1.66 1.57 1.57 1.52 1.49 1.51 1.54 1.54 1.58 1.54 1.48 1.47 1.50 1.53 1.50 1.48 1.51 1.60 1.44 1.13 1.01 0.98 0.91 0.91 0.91 0.87 0.82 0.75
1.41 1.44 1.42 1.39 1.34 1.32 1.40 1.56 1.67 1.77 1.81 1.86 1.94 1.88 1.74 1.64 1.52 1.46 1.42 1.41 1.39 1.36 1.38 1.44 1.47 1.50 1.49 1.45 1.44 1.42 1.40 1.40 1.49 1.52 1.24 1.02 0.94 0.90 0.89 0.86 0.84 0.83 0.77
1.34 1.43 1.46 1.43 1.39 1.33 1.38 1.44 1.52 1.57 1.64 1.66 1.73 1.83 1.84 1.76 1.64 1.51 1.43 1.39 1.39 1.35 1.33 1.39 1.41 1.39 1.35 1.30 1.33 1.30 1.33 1.39 1.42 1.50 1.41 1.20 1.03 0.91 0.95 0.96 0.94 0.85 0.82
1.19 1.35 1.43 1.50 1.56 1.58 1.52 1.47 1.46 1.46 1.52 1.55 1.57 1.68 1.75 1.77 1.72 1.62 1.50 1.45 1.45 1.45 1.39 1.36 1.37 1.42 1.36 1.29 1.28 1.26 1.29 1.38 1.48 1.55 1.47 1.27 1.10 0.99 0.92 0.86 0.93 0.92 0.89
0.99 1.12 1.24 1.38 1.53 1.68 1.71 1.64 1.56 1.48 1.48 1.54 1.53 1.57 1.63 1.67 1.87 1.83 1.62 1.52 1.49 1.42 1.35 1.26 1.24 1.33 1.32 1.33 1.32 1.29 1.34 1.44 1.54 1.60 1.51 1.31 1.03 0.92 0.93 1.05 1.17 1.31 1.23
0.85 0.90 1.02 1.21 1.35 1.50 1.68 1.76 1.66 1.60 1.64 1.65 1.65 1.65 1.67 1.76 1.86 1.70 1.62 1.45 1.40 1.31 1.22 1.16 1.11 1.09 1.17 1.10 1.16 1.23 1.25 1.35 1.43 1.44 1.39 1.14 1.00 0.94 1.12 1.30 1.32 1.35 1.20
0.84 0.87 0.97 1.07 1.20 1.39 1.56 1.70 1.77 1.75 1.81 1.81 1.75 1.71 1.71 1.74 1.77 1.65 1.59 1.39 1.29 1.19 1.10 1.03 1.02 1.00 1.02 1.11 1.18 1.24 1.15 1.08 1.08 1.04 1.03 0.98 0.98 1.05 1.27 1.52 1.63 1.68 1.45
0.80 0.85 0.90 0.99 1.09 1.25 1.44 1.60 1.72 1.78 1.84 1.88 1.77 1.63 1.52 1.54 1.57 1.45 1.44 1.33 1.31 1.20 1.10 1.05 1.04 0.98 1.09 1.26 1.31 1.32 1.16 1.00 1.00 1.06 1.12 1.12 1.17 1.23 1.32 1.59 1.85 2.00 1.76
0.79 0.83 0.86 0.94 1.02 1.13 1.28 1.46 1.61 1.70 1.73 1.69 1.64 1.53 1.41 1.36 1.43 1.33 1.31 1.28 1.28 1.19 1.12 1.09 1.17 1.12 1.22 1.32 1.25 1.26 1.19 0.99 0.93 0.93 0.97 0.99 0.93 0.97 1.16 1.31 1.74 2.21 1.95
0.75 0.81 0.85 0.91 0.98 1.06 1.12 1.21 1.34 1.42 1.43 1.38 1.34 1.33 1.30 1.29 1.31 1.24 1.21 1.20 1.20 1.21 1.19 1.11 1.09 1.29 1.37 1.39 1.27 1.08 1.10 1.17 1.06 0.96 0.93 0.93 0.92 0.92 0.95 1.01 1.29 1.99 2.35
0.73 0.78 0.85 0.90 0.90 0.91 0.95 1.01 1.05 1.09 1.14 1.15 1.14 1.14 1.17 1.22 1.23 1.22 1.23 1.26 1.27 1.18 1.12 1.03 1.07 1.30 1.31 1.27 1.18 1.18 1.28 1.21 1.03 1.05 1.04 1.00 0.97 0.96 0.97 1.01 1.08 1.28 1.63
0.72 0.75 0.79 0.81 0.82 0.84 0.86 0.89 0.94 0.97 1.00 1.05 1.05 1.05 1.06 1.06 1.12 1.23 1.21 1.26 1.30 1.18 1.11 1.18 1.22 1.24 1.19 1.14 1.18 1.19 1.14 1.06 1.10 1.20 1.15 1.03 0.98 1.01 1.06 1.12 1.15 1.17 1.27
0.68 0.69 0.71 0.71 0.73 0.76 0.80 0.85 0.92 0.97 0.95 0.94 0.96 0.97 0.96 0.95 0.93 0.99 1.08 1.14 1.20 1.18 1.18 1.21 1.20 1.16 1.14 1.15 1.21 1.15 1.03 1.06 1.23 1.29 1.19 1.09 1.08 1.14 1.17 1.23 1.38 1.42 1.52
0.62 0.61 0.61 0.63 0.67 0.73 0.77 0.84 0.92 0.98 1.03 1.02 0.95 0.91 0.93 0.95 0.96 1.08 1.11 1.06 1.13 1.19 1.19 1.09 1.04 1.05 1.08 1.06 1.04 1.05 1.05 1.09 1.18 1.18 1.23 1.23 1.22 1.30 1.37 1.44 1.61 1.70 1.74
0.61 0.60 0.61 0.60 0.63 0.70 0.75 0.82 0.93 0.98 1.03 1.05 1.05 0.98 0.93 0.98 1.03 1.06 1.08 1.12 1.19 1.24 1.16 1.06 1.01 0.98 0.99 0.99 0.98 0.98 1.01 1.05 1.14 1.28 1.34 1.36 1.41 1.48 1.57 1.61 1.74 1.86 1.78
0.62 0.63 0.63 0.62 0.64 0.68 0.71 0.73 0.80 0.85 0.89 0.95 0.99 1.00 0.98 0.99 0.98 1.00 1.06 1.09 1.06 1.06 0.97 0.93 0.93 0.92 0.92 0.93 0.97 1.01 1.03 1.03 1.18 1.39 1.51 1.56 1.64 1.69 1.74 1.79 1.80 1.78 1.63
0.60 0.64 0.61 0.62 0.65 0.66 0.69 0.71 0.70 0.70 0.74 0.80 0.86 0.91 0.93 0.94 0.94 0.97 1.03 1.02 0.96 0.93 0.87 0.86 0.86 0.86 0.91 0.95 1.00 1.09 1.15 1.17 1.28 1.43 1.54 1.60 1.71 1.84 1.88 1.79 1.70 1.64 1.54
0.55 0.58 0.58 0.59 0.62 0.64 0.65 0.69 0.68 0.65 0.66 0.66 0.66 0.75 0.86 0.88 0.91 0.96 0.97 0.91 0.90 0.88 0.84 0.83 0.83 0.87 0.93 1.00 1.06 1.15 1.26 1.37 1.45 1.61 1.66 1.67 1.74 1.93 1.90 1.69 1.54 1.45 1.39
0.55 0.59 0.57 0.56 0.58 0.61 0.62 0.64 0.66 0.62 0.61 0.59 0.61 0.65 0.71 0.79 0.81 0.81 0.84 0.86 0.90 0.91 0.88 0.88 0.87 0.90 0.97 1.04 1.10 1.21 1.35 1.41 1.50 1.60 1.65 1.68 1.74 1.85 1.80 1.55 1.36 1.32 1.24
0.53 0.56 0.57 0.53 0.56 0.60 0.62 0.64 0.66 0.66 0.63 0.59 0.60 0.68 0.82 0.83 0.79 0.76 0.79 0.83 0.88 0.92 0.95 0.98 0.97 0.98 1.02 1.09 1.17 1.23 1.36 1.43 1.51 1.63 1.66 1.62 1.61 1.56 1.39 1.32 1.27 1.25 1.26
0.49 0.50 0.50 0.51 0.53 0.57 0.62 0.64 0.65 0.65 0.64 0.61 0.58 0.65 0.76 0.71 0.67 0.69 0.72 0.74 0.76 0.81 0.89 1.01 1.04 1.03 1.15 1.35 1.52 1.61 1.53 1.46 1.48 1.61 1.64 1.51 1.42 1.32 1.26 1.29 1.27 1.28 1.30
0.45 0.46 0.47 0.49 0.52 0.57 0.60 0.58 0.60 0.62 0.63 0.61 0.59 0.58 0.61 0.62 0.62 0.63 0.65 0.64 0.66 0.70 0.75 0.87 0.97 0.97 1.02 1.26 1.55 1.91 2.04 1.81 1.68 1.75 1.81 1.63 1.42 1.33 1.35 1.36 1.28 1.28 1.25
0.43 0.46 0.48 0.49 0.52 0.54 0.56 0.57 0.58 0.60 0.61 0.60 0.57 0.56 0.56 0.58 0.59 0.58 0.59 0.59 0.61 0.63 0.67 0.77 0.87 0.91 0.96 1.19 1.43 1.61 1.77 1.90 2.08 2.07 1.98 1.94 1.67 1.44 1.39 1.36 1.24 1.17 1.17
0.45 0.47 0.49 0.50 0.51 0.53 0.54 0.55 0.56 0.57 0.58 0.58 0.56 0.56 0.55 0.56 0.56 0.55 0.55 0.56 0.58 0.59 0.58 0.65 0.79 0.90 0.98 1.14 1.33 1.47 1.59 1.74 1.87 1.91 1.85 1.76 1.56 1.37 1.34 1.32 1.21 1.13 1.13
0.43 0.46 0.48 0.50 0.51 0.51 0.52 0.54 0.55 0.55 0.57 0.57 0.57 0.57 0.58 0.58 0.57 0.56 0.56 0.58 0.60 0.57 0.55 0.57 0.64 0.79 0.93 1.08 1.16 1.32 1.48 1.45 1.30 1.26 1.47 1.59 1.47 1.28 1.27 1.35 1.24 1.19 1.16

GEFSGL_prec_meanprecacc_294.txt.gz
Total_Precipitation_Accumulation
1.43 1.46 1.48 1.49 1.61 1.81 1.98 2.09 2.05 2.10 2.15 2.10 1.96 1.86 1.82 1.76 1.78 1.81 1.77 1.79 1.82 1.81 1.78 1.74 1.64 1.58 1.64 1.66 1.66 1.70 1.79 1.93 1.88 1.38 1.15 1.13 1.15 1.10 1.09 1.00 0.92 0.89 0.86
1.49 1.47 1.47 1.47 1.44 1.53 1.65 1.86 1.94 2.04 2.05 2.09 2.02 1.89 1.80 1.72 1.67 1.68 1.64 1.59 1.59 1.60 1.60 1.62 1.57 1.50 1.51 1.53 1.56 1.53 1.50 1.53 1.63 1.47 1.17 1.06 1.03 0.96 0.95 0.95 0.90 0.85 0.77
1.49 1.51 1.47 1.43 1.37 1.35 1.42 1.58 1.69 1.81 1.87 1.91 1.99 1.92 1.78 1.70 1.62 1.58 1.53 1.51 1.48 1.42 1.44 1.49 1.51 1.54 1.53 1.50 1.48 1.45 1.42 1.42 1.51 1.55 1.28 1.06 1.00 0.95 0.94 0.91 0.87 0.86 0.79
1.43 1.51 1.52 1.46 1.41 1.36 1.40 1.45 1.54 1.61 1.70 1.72 1.79 1.88 1.89 1.83 1.72 1.61 1.54 1.49 1.48 1.42 1.39 1.45 1.46 1.43 1.38 1.35 1.36 1.33 1.36 1.42 1.45 1.52 1.44 1.25 1.09 0.98 1.02 1.02 0.99 0.90 0.86
1.30 1.47 1.51 1.55 1.59 1.61 1.55 1.49 1.48 1.50 1.58 1.61 1.65 1.74 1.81 1.85 1.81 1.70 1.60 1.55 1.53 1.53 1.45 1.41 1.42 1.46 1.39 1.33 1.31 1.30 1.33 1.42 1.51 1.58 1.49 1.31 1.16 1.07 1.01 0.94 0.99 0.97 0.94
1.08 1.25 1.36 1.46 1.57 1.71 1.74 1.68 1.60 1.54 1.55 1.60 1.60 1.65 1.70 1.75 1.97 1.93 1.71 1.62 1.58 1.50 1.42 1.31 1.30 1.38 1.37 1.38 1.36 1.33 1.37 1.47 1.58 1.63 1.54 1.34 1.07 0.98 1.00 1.13 1.25 1.38 1.30
0.92 0.99 1.13 1.32 1.43 1.55 1.72 1.82 1.74 1.69 1.71 1.72 1.73 1.76 1.75 1.84 1.96 1.81 1.72 1.55 1.50 1.40 1.29 1.22 1.16 1.14 1.21 1.13 1.19 1.26 1.27 1.37 1.46 1.47 1.42 1.17 1.02 0.97 1.17 1.37 1.40 1.42 1.25
0.92 0.97 1.08 1.20 1.32 1.49 1.66 1.80 1.88 1.86 1.91 1.90 1.86 1.85 1.82 1.84 1.88 1.74 1.70 1.50 1.40 1.28 1.17 1.09 1.06 1.04 1.06 1.14 1.21 1.27 1.17 1.10 1.09 1.06 1.04 1.00 0.99 1.07 1.30 1.56 1.69 1.75 1.52
0.87 0.94 1.01 1.12 1.22 1.38 1.57 1.72 1.83 1.87 1.92 1.96 1.86 1.74 1.65 1.66 1.70 1.58 1.56 1.45 1.43 1.31 1.19 1.12 1.09 1.03 1.14 1.30 1.35 1.35 1.19 1.02 1.01 1.07 1.13 1.13 1.19 1.25 1.35 1.63 1.90 2.07 1.84
0.85 0.91 0.95 1.05 1.14 1.24 1.40 1.57 1.72 1.80 1.82 1.78 1.71 1.61 1.50 1.47 1.55 1.46 1.43 1.40 1.40 1.31 1.22 1.17 1.23 1.17 1.27 1.37 1.29 1.30 1.22 1.02 0.95 0.95 0.98 1.00 0.95 0.99 1.20 1.34 1.78 2.26 2.00
0.82 0.88 0.94 0.99 1.09 1.17 1.20 1.29 1.41 1.49 1.52 1.50 1.43 1.41 1.39 1.38 1.39 1.32 1.30 1.28 1.29 1.29 1.26 1.18 1.16 1.34 1.41 1.44 1.31 1.11 1.12 1.18 1.08 0.98 0.95 0.95 0.94 0.94 0.98 1.03 1.31 2.02 2.38
0.80 0.85 0.93 0.99 1.00 1.04 1.06 1.09 1.12 1.16 1.24 1.29 1.24 1.22 1.26 1.31 1.31 1.29 1.31 1.33 1.34 1.24 1.18 1.07 1.11 1.35 1.35 1.31 1.21 1.21 1.30 1.23 1.04 1.07 1.07 1.03 1.00 0.99 1.00 1.04 1.10 1.30 1.65
0.78 0.82 0.85 0.88 0.91 0.95 1.00 1.01 1.04 1.06 1.11 1.19 1.16 1.14 1.13 1.13 1.19 1.31 1.30 1.35 1.37 1.23 1.16 1.22 1.26 1.28 1.23 1.18 1.21 1.22 1.17 1.09 1.13 1.22 1.16 1.05 0.99 1.02 1.08 1.15 1.18 1.20 1.29
0.75 0.76 0.77 0.77 0.80 0.85 0.91 0.97 1.04 1.09 1.07 1.07 1.07 1.06 1.05 1.02 0.99 1.06 1.17 1.23 1.30 1.26 1.24 1.26 1.24 1.20 1.18 1.19 1.25 1.19 1.06 1.09 1.25 1.31 1.21 1.11 1.09 1.15 1.19 1.25 1.41 1.45 1.55
0.67 0.67 0.68 0.71 0.75 0.81 0.87 0.95 1.04 1.08 1.14 1.14 1.06 1.00 1.02 1.05 1.05 1.16 1.18 1.14 1.22 1.28 1.27 1.15 1.10 1.10 1.12 1.11 1.07 1.08 1.09 1.13 1.22 1.21 1.25 1.25 1.24 1.32 1.40 1.47 1.64 1.73 1.76
0.65 0.65 0.66 0.66 0.70 0.77 0.84 0.92 1.04 1.08 1.12 1.13 1.13 1.07 1.02 1.08 1.13 1.16 1.17 1.21 1.28 1.33 1.25 1.14 1.08 1.03 1.03 1.04 1.02 1.02 1.05 1.09 1.17 1.31 1.36 1.38 1.43 1.51 1.60 1.64 1.77 1.89 1.80
0.66 0.67 0.68 0.68 0.70 0.75 0.77 0.80 0.89 0.94 0.96 1.01 1.06 1.07 1.05 1.07 1.08 1.11 1.16 1.19 1.15 1.15 1.05 1.01 1.00 1.00 0.99 0.99 1.02 1.05 1.08 1.08 1.21 1.43 1.55 1.59 1.66 1.71 1.77 1.82 1.83 1.81 1.66
0.64 0.68 0.66 0.67 0.71 0.72 0.74 0.77 0.76 0.77 0.80 0.85 0.91 0.97 0.99 1.00 1.01 1.06 1.12 1.11 1.05 1.02 0.95 0.93 0.92 0.92 0.97 1.02 1.07 1.15 1.20 1.21 1.31 1.47 1.58 1.64 1.74 1.87 1.91 1.83 1.73 1.67 1.57
0.59 0.62 0.62 0.64 0.67 0.69 0.70 0.73 0.73 0.70 0.70 0.70 0.70 0.80 0.90 0.92 0.95 1.01 1.04 0.98 0.98 0.96 0.92 0.89 0.89 0.92 0.99 1.05 1.11 1.20 1.31 1.42 1.50 1.64 1.69 1.71 1.78 1.97 1.94 1.72 1.58 1.49 1.43
0.60 0.64 0.61 0.60 0.63 0.66 0.66 0.68 0.70 0.66 0.65 0.64 0.65 0.70 0.76 0.83 0.84 0.86 0.89 0.93 0.97 0.98 0.95 0.95 0.94 0.96 1.03 1.09 1.15 1.26 1.40 1.47 1.55 1.65 1.70 1.72 1.78 1.90 1.85 1.59 1.40 1.36 1.28
0.58 0.60 0.61 0.58 0.60 0.64 0.67 0.69 0.70 0.70 0.67 0.63 0.65 0.74 0.87 0.88 0.84 0.81 0.84 0.88 0.94 0.99 1.02 1.04 1.04 1.05 1.09 1.16 1.23 1.29 1.41 1.48 1.56 1.68 1.71 1.67 1.65 1.61 1.44 1.37 1.32 1.30 1.31
0.53 0.54 0.53 0.54 0.56 0.60 0.65 0.68 0.69 0.69 0.67 0.65 0.63 0.69 0.81 0.76 0.72 0.74 0.77 0.79 0.81 0.87 0.95 1.07 1.10 1.09 1.21 1.41 1.58 1.67 1.59 1.52 1.53 1.67 1.70 1.57 1.47 1.37 1.31 1.35 1.33 1.34 1.36
0.49 0.49 0.50 0.52 0.54 0.60 0.62 0.61 0.63 0.65 0.66 0.64 0.62 0.62 0.64 0.67 0.67 0.68 0.70 0.70 0.71 0.75 0.80 0.92 1.03 1.02 1.08 1.32 1.61 1.97 2.10 1.86 1.73 1.80 1.86 1.69 1.47 1.38 1.40 1.42 1.34 1.34 1.31
0.46 0.48 0.49 0.51 0.53 0.55 0.57 0.58 0.60 0.62 0.63 0.62 0.59 0.58 0.59 0.62 0.63 0.62 0.63 0.64 0.66 0.68 0.71 0.82 0.92 0.96 1.01 1.25 1.49 1.67 1.83 1.96 2.14 2.13 2.04 2.00 1.73 1.50 1.45 1.42 1.30 1.23 1.23
0.46 0.48 0.50 0.51 0.53 0.54 0.55 0.56 0.57 0.58 0.59 0.59 0.58 0.57 0.57 0.59 0.59 0.59 0.59 0.60 0.62 0.62 0.62 0.69 0.83 0.94 1.03 1.19 1.38 1.53 1.66 1.81 1.94 1.98 1.92 1.83 1.63 1.44 1.41 1.39 1.27 1.19 1.19
0.44 0.47 0.49 0.51 0.51 0.52 0.53 0.55 0.56 0.56 0.58 0.58 0.59 0.59 0.60 0.60 0.60 0.59 0.60 0.61 0.63 0.61 0.58 0.61 0.68 0.82 0.97 1.12 1.21 1.37 1.53 1.51 1.36 1.32 1.53 1.65 1.54 1.35 1.34 1.41 1.30 1.24 1.21

GEFSGL_prec_meanprecacc_300.txt.gz
Total_Precipitation_Accumulation
1.49 1.53 1.56 1.59 1.70 1.87 2.03 2.13 2.09 2.15 2.20 2.15 1.99 1.90 1.86 1.80 1.81 1.86 1.83 1.86 1.91 1.90 1.88 1.81 1.68 1.60 1.66 1.67 1.67 1.72 1.81 1.96 1.91 1.40 1.18 1.16 1.19 1.15 1.13 1.04 0.95 0.92 0.88
1.54 1.54 1.56 1.56 1.52 1.60 1.71 1.90 1.98 2.07 2.09 2.14 2.06 1.92 1.83 1.75 1.70 1.72 1.70 1.65 1.65 1.68 1.68 1.71 1.65 1.55 1.53 1.54 1.58 1.54 1.52 1.55 1.65 1.49 1.19 1.08 1.06 1.00 0.99 0.99 0.94 0.89 0.80
1.54 1.58 1.56 1.51 1.44 1.42 1.49 1.64 1.74 1.84 1.91 1.95 2.04 1.96 1.82 1.73 1.65 1.61 1.58 1.56 1.53 1.48 1.51 1.56 1.58 1.60 1.57 1.51 1.49 1.46 1.43 1.44 1.52 1.57 1.29 1.08 1.02 0.98 0.98 0.95 0.92 0.91 0.83
1.48 1.57 1.59 1.54 1.48 1.41 1.45 1.51 1.59 1.66 1.74 1.76 1.83 1.92 1.93 1.86 1.75 1.65 1.59 1.54 1.53 1.48 1.45 1.50 1.52 1.49 1.43 1.38 1.38 1.34 1.37 1.43 1.46 1.54 1.46 1.27 1.12 1.02 1.05 1.06 1.03 0.94 0.90
1.35 1.52 1.57 1.61 1.65 1.66 1.59 1.54 1.52 1.54 1.63 1.66 1.69 1.79 1.85 1.89 1.84 1.74 1.65 1.61 1.60 1.59 1.51 1.47 1.48 1.52 1.44 1.37 1.34 1.32 1.35 1.44 1.53 1.60 1.51 1.33 1.19 1.11 1.05 0.97 1.02 1.01 0.97
1.15 1.31 1.42 1.51 1.62 1.76 1.78 1.72 1.64 1.56 1.58 1.65 1.66 1.72 1.76 1.79 2.02 1.98 1.77 1.68 1.64 1.56 1.47 1.36 1.36 1.45 1.43 1.43 1.40 1.36 1.40 1.50 1.61 1.66 1.56 1.36 1.09 1.00 1.02 1.17 1.28 1.41 1.35
0.98 1.05 1.19 1.38 1.47 1.58 1.77 1.86 1.78 1.71 1.74 1.75 1.78 1.83 1.83 1.91 2.02 1.86 1.79 1.62 1.57 1.46 1.34 1.26 1.21 1.20 1.27 1.19 1.25 1.31 1.31 1.40 1.48 1.50 1.45 1.19 1.04 0.99 1.19 1.40 1.44 1.46 1.28
0.97 1.03 1.15 1.27 1.38 1.53 1.70 1.85 1.92 1.89 1.94 1.94 1.92 1.92 1.90 1.91 1.95 1.81 1.77 1.57 1.47 1.34 1.23 1.13 1.10 1.08 1.10 1.19 1.26 1.33 1.23 1.14 1.13 1.09 1.07 1.02 1.01 1.09 1.33 1.59 1.73 1.80 1.56
0.93 1.01 1.08 1.20 1.30 1.45 1.62 1.76 1.87 1.91 1.96 2.00 1.90 1.80 1.73 1.73 1.77 1.64 1.62 1.52 1.50 1.37 1.24 1.17 1.13 1.06 1.17 1.35 1.40 1.40 1.24 1.07 1.05 1.10 1.16 1.16 1.22 1.29 1.39 1.67 1.94 2.11 1.89
0.93 0.98 1.02 1.12 1.22 1.32 1.46 1.61 1.75 1.84 1.85 1.80 1.74 1.65 1.56 1.53 1.63 1.52 1.49 1.48 1.49 1.38 1.28 1.23 1.29 1.22 1.31 1.41 1.34 1.35 1.27 1.07 0.99 0.99 1.01 1.04 0.98 1.02 1.23 1.38 1.81 2.29 2.03
0.90 0.96 1.01 1.07 1.17 1.25 1.27 1.34 1.45 1.53 1.55 1.52 1.46 1.45 1.43 1.45 1.49 1.41 1.37 1.37 1.39 1.39 1.34 1.25 1.23 1.41 1.47 1.49 1.37 1.17 1.17 1.23 1.12 1.02 0.99 0.98 0.97 0.97 1.01 1.06 1.33 2.04 2.40
0.88 0.93 1.01 1.06 1.08 1.12 1.13 1.14 1.17 1.21 1.28 1.33 1.28 1.26 1.31 1.37 1.39 1.40 1.41 1.42 1.43 1.34 1.27 1.15 1.19 1.43 1.42 1.38 1.28 1.28 1.37 1.29 1.10 1.12 1.12 1.07 1.03 1.02 1.03 1.07 1.12 1.31 1.67
0.87 0.90 0.94 0.96 0.98 1.04 1.08 1.08 1.11 1.12 1.18 1.27 1.21 1.18 1.18 1.18 1.25 1.39 1.39 1.44 1.46 1.32 1.25 1.31 1.34 1.36 1.31 1.25 1.28 1.30 1.25 1.15 1.19 1.28 1.21 1.09 1.03 1.05 1.10 1.18 1.21 1.22 1.32
0.83 0.84 0.87 0.86 0.89 0.93 1.00 1.07 1.13 1.17 1.16 1.17 1.14 1.12 1.11 1.08 1.04 1.12 1.24 1.31 1.38 1.34 1.32 1.35 1.32 1.27 1.25 1.26 1.31 1.25 1.14 1.16 1.31 1.36 1.25 1.14 1.12 1.19 1.22 1.29 1.45 1.49 1.59
0.74 0.75 0.77 0.80 0.84 0.92 0.98 1.06 1.14 1.19 1.26 1.27 1.16 1.09 1.10 1.12 1.12 1.22 1.25 1.21 1.29 1.36 1.35 1.24 1.18 1.17 1.19 1.18 1.14 1.15 1.15 1.20 1.27 1.25 1.29 1.29 1.29 1.37 1.44 1.51 1.67 1.77 1.81
0.70 0.71 0.74 0.75 0.80 0.88 0.95 1.03 1.15 1.19 1.23 1.25 1.24 1.16 1.09 1.15 1.21 1.24 1.24 1.28 1.35 1.41 1.34 1.24 1.16 1.10 1.10 1.11 1.09 1.08 1.10 1.14 1.22 1.35 1.40 1.42 1.48 1.56 1.64 1.68 1.81 1.93 1.84
0.69 0.72 0.74 0.75 0.79 0.85 0.87 0.90 1.00 1.04 1.05 1.11 1.16 1.16 1.14 1.15 1.16 1.19 1.25 1.28 1.25 1.24 1.14 1.10 1.08 1.06 1.05 1.05 1.08 1.11 1.13 1.12 1.25 1.46 1.59 1.63 1.71 1.76 1.82 1.86 1.87 1.86 1.70
0.66 0.71 0.70 0.72 0.78 0.80 0.84 0.86 0.86 0.86 0.89 0.94 1.01 1.07 1.09 1.10 1.10 1.15 1.22 1.22 1.18 1.14 1.04 1.01 0.99 0.99 1.03 1.08 1.13 1.20 1.25 1.26 1.35 1.50 1.61 1.67 1.78 1.92 1.96 1.87 1.77 1.72 1.62
0.61 0.65 0.66 0.68 0.73 0.76 0.78 0.82 0.82 0.80 0.80 0.80 0.80 0.89 1.00 1.03 1.05 1.11 1.13 1.08 1.08 1.07 1.02 0.99 0.97 0.99 1.05 1.11 1.16 1.25 1.36 1.47 1.54 1.68 1.73 1.74 1.82 2.00 1.98 1.77 1.62 1.54 1.48
0.61 0.66 0.64 0.64 0.67 0.71 0.73 0.75 0.78 0.75 0.73 0.72 0.74 0.80 0.87 0.93 0.93 0.95 0.99 1.02 1.06 1.08 1.05 1.04 1.02 1.04 1.10 1.16 1.21 1.31 1.45 1.52 1.60 1.70 1.75 1.77 1.83 1.94 1.89 1.64 1.45 1.42 1.34
0.60 0.62 0.63 0.61 0.63 0.68 0.71 0.74 0.77 0.77 0.74 0.70 0.72 0.82 0.96 0.97 0.93 0.91 0.94 0.98 1.04 1.08 1.11 1.14 1.13 1.14 1.18 1.24 1.30 1.36 1.48 1.55 1.62 1.74 1.77 1.73 1.71 1.67 1.49 1.42 1.37 1.35 1.36
0.55 0.56 0.55 0.57 0.59 0.64 0.69 0.72 0.74 0.75 0.73 0.70 0.69 0.76 0.87 0.82 0.79 0.81 0.86 0.88 0.90 0.96 1.04 1.16 1.19 1.18 1.30 1.49 1.66 1.75 1.67 1.59 1.60 1.74 1.78 1.64 1.54 1.44 1.38 1.41 1.38 1.39 1.40
0.50 0.51 0.52 0.54 0.57 0.63 0.66 0.64 0.66 0.69 0.70 0.68 0.66 0.67 0.70 0.72 0.72 0.74 0.76 0.77 0.79 0.83 0.88 1.00 1.11 1.11 1.16 1.40 1.68 2.04 2.17 1.94 1.81 1.88 1.94 1.76 1.54 1.45 1.46 1.47 1.39 1.39 1.35
0.48 0.50 0.51 0.53 0.56 0.58 0.60 0.61 0.63 0.65 0.66 0.65 0.63 0.62 0.63 0.66 0.67 0.67 0.68 0.70 0.72 0.74 0.78 0.88 1.00 1.04 1.09 1.32 1.56 1.74 1.90 2.04 2.21 2.21 2.11 2.07 1.79 1.56 1.51 1.47 1.35 1.27 1.28
0.47 0.50 0.52 0.53 0.54 0.56 0.57 0.58 0.60 0.60 0.62 0.62 0.61 0.60 0.60 0.61 0.62 0.62 0.62 0.64 0.66 0.67 0.66 0.74 0.89 1.00 1.09 1.25 1.44 1.59 1.72 1.87 2.00 2.04 1.99 1.90 1.70 1.50 1.47 1.44 1.32 1.24 1.22
0.45 0.48 0.50 0.52 0.53 0.53 0.55 0.57 0.58 0.58 0.60 0.60 0.61 0.61 0.62 0.62 0.62 0.61 0.62 0.64 0.66 0.64 0.61 0.64 0.72 0.86 1.01 1.17 1.26 1.42 1.58 1.56 1.41 1.37 1.59 1.71 1.60 1.41 1.40 1.47 1.35 1.29 1.25

GEFSGL_prec_meanprecacc_306.txt.gz
Total_Precipitation_Accumulation
1.53 1.56 1.58 1.61 1.73 1.91 2.07 2.15 2.11 2.17 2.22 2.18 2.02 1.94 1.90 1.84 1.86 1.91 1.87 1.90 1.95 1.96 1.95 1.90 1.77 1.67 1.73 1.75 1.76 1.80 1.87 2.00 1.94 1.42 1.19 1.17 1.22 1.18 1.17 1.09 1.02 0.99 0.95
1.59 1.58 1.59 1.58 1.56 1.65 1.76 1.94 2.00 2.09 2.10 2.16 2.09 1.96 1.87 1.79 1.75 1.77 1.74 1.69 1.69 1.73 1.74 1.78 1.73 1.62 1.60 1.62 1.66 1.61 1.57 1.59 1.68 1.51 1.20 1.10 1.08 1.02 1.02 1.02 0.98 0.94 0.87
1.58 1.63 1.60 1.54 1.48 1.46 1.54 1.70 1.78 1.87 1.93 1.97 2.06 1.99 1.85 1.77 1.69 1.66 1.62 1.60 1.56 1.52 1.55 1.61 1.65 1.67 1.64 1.59 1.56 1.52 1.48 1.48 1.55 1.58 1.30 1.10 1.04 1.00 1.01 0.98 0.94 0.93 0.87
1.52 1.62 1.64 1.60 1.54 1.46 1.49 1.55 1.65 1.71 1.79 1.79 1.85 1.95 1.96 1.89 1.78 1.69 1.63 1.58 1.56 1.50 1.48 1.54 1.57 1.55 1.50 1.45 1.45 1.41 1.42 1.47 1.49 1.56 1.47 1.28 1.14 1.03 1.08 1.09 1.07 0.97 0.93
1.40 1.56 1.61 1.66 1.72 1.73 1.64 1.57 1.56 1.59 1.69 1.72 1.74 1.82 1.88 1.92 1.88 1.79 1.69 1.65 1.63 1.61 1.54 1.50 1.52 1.57 1.50 1.43 1.41 1.39 1.41 1.50 1.57 1.62 1.53 1.34 1.20 1.12 1.07 1.00 1.05 1.04 1.01
1.18 1.34 1.45 1.55 1.67 1.83 1.85 1.77 1.69 1.61 1.62 1.70 1.72 1.77 1.81 1.84 2.05 2.02 1.82 1.73 1.68 1.59 1.50 1.39 1.39 1.49 1.49 1.49 1.46 1.42 1.46 1.56 1.64 1.68 1.57 1.36 1.10 1.01 1.03 1.18 1.31 1.45 1.39
1.02 1.08 1.22 1.40 1.50 1.63 1.83 1.92 1.84 1.77 1.78 1.80 1.83 1.88 1.88 1.97 2.08 1.92 1.84 1.67 1.61 1.50 1.38 1.29 1.25 1.24 1.33 1.24 1.30 1.36 1.36 1.45 1.51 1.51 1.46 1.19 1.04 0.99 1.20 1.42 1.47 1.49 1.32
1.02 1.06 1.18 1.29 1.40 1.56 1.75 1.89 1.96 1.94 1.99 1.98 1.95 1.96 1.94 1.96 2.01 1.87 1.84 1.64 1.53 1.40 1.28 1.17 1.14 1.12 1.15 1.25 1.32 1.38 1.28 1.19 1.16 1.10 1.08 1.03 1.02 1.10 1.34 1.61 1.75 1.83 1.60
0.99 1.05 1.11 1.22 1.32 1.46 1.64 1.79 1.90 1.95 2.01 2.04 1.93 1.84 1.77 1.77 1.82 1.69 1.68 1.59 1.57 1.44 1.31 1.23 1.18 1.10 1.22 1.40 1.46 1.47 1.30 1.12 1.10 1.14 1.18 1.18 1.24 1.30 1.40 1.69 1.97 2.15 1.94
0.99 1.03 1.06 1.15 1.25 1.34 1.48 1.63 1.78 1.87 1.89 1.85 1.78 1.68 1.59 1.56 1.67 1.57 1.56 1.55 1.57 1.45 1.34 1.29 1.36 1.28 1.36 1.47 1.41 1.42 1.33 1.12 1.04 1.04 1.06 1.07 1.00 1.03 1.24 1.39 1.83 2.32 2.06
0.97 1.02 1.05 1.10 1.20 1.28 1.30 1.37 1.48 1.56 1.59 1.57 1.49 1.48 1.47 1.48 1.52 1.45 1.43 1.44 1.47 1.48 1.42 1.32 1.29 1.48 1.54 1.55 1.43 1.23 1.22 1.28 1.18 1.08 1.05 1.03 1.01 1.00 1.03 1.07 1.35 2.06 2.43
0.95 1.00 1.05 1.09 1.11 1.15 1.17 1.18 1.21 1.25 1.32 1.37 1.31 1.29 1.35 1.40 1.43 1.44 1.47 1.49 1.51 1.43 1.36 1.23 1.26 1.50 1.50 1.45 1.34 1.34 1.43 1.36 1.17 1.19 1.19 1.14 1.08 1.05 1.06 1.09 1.14 1.34 1.69
0.95 0.97 1.00 1.00 1.02 1.07 1.12 1.13 1.16 1.19 1.23 1.31 1.25 1.21 1.22 1.22 1.29 1.43 1.45 1.51 1.53 1.39 1.32 1.39 1.41 1.43 1.37 1.32 1.36 1.37 1.32 1.22 1.27 1.35 1.28 1.15 1.07 1.08 1.13 1.21 1.23 1.25 1.34
0.91 0.93 0.94 0.92 0.94 0.98 1.05 1.11 1.18 1.24 1.23 1.23 1.19 1.15 1.14 1.11 1.07 1.16 1.29 1.37 1.43 1.40 1.38 1.41 1.38 1.34 1.33 1.33 1.39 1.33 1.21 1.23 1.38 1.42 1.30 1.18 1.16 1.22 1.25 1.31 1.48 1.52 1.63
0.81 0.83 0.85 0.87 0.90 0.98 1.03 1.12 1.21 1.26 1.33 1.34 1.22 1.14 1.14 1.16 1.15 1.26 1.30 1.27 1.35 1.43 1.43 1.31 1.24 1.23 1.26 1.25 1.21 1.21 1.21 1.27 1.34 1.30 1.33 1.33 1.33 1.41 1.47 1.54 1.71 1.81 1.85
0.78 0.79 0.82 0.83 0.88 0.95 1.02 1.09 1.22 1.28 1.30 1.31 1.30 1.21 1.14 1.20 1.25 1.28 1.29 1.33 1.42 1.48 1.42 1.32 1.24 1.16 1.16 1.17 1.15 1.15 1.17 1.21 1.29 1.41 1.46 1.47 1.52 1.60 1.69 1.72 1.86 1.98 1.89
0.77 0.80 0.82 0.83 0.88 0.93 0.95 0.99 1.08 1.14 1.15 1.18 1.22 1.21 1.19 1.20 1.20 1.23 1.30 1.34 1.31 1.30 1.21 1.17 1.15 1.12 1.11 1.11 1.14 1.17 1.19 1.19 1.32 1.53 1.65 1.69 1.75 1.80 1.86 1.91 1.92 1.91 1.76
0.70 0.77 0.77 0.81 0.87 0.89 0.93 0.95 0.95 0.97 1.00 1.04 1.09 1.14 1.15 1.16 1.16 1.20 1.29 1.29 1.26 1.21 1.11 1.08 1.06 1.05 1.09 1.15 1.19 1.27 1.32 1.33 1.43 1.58 1.68 1.73 1.83 1.97 2.01 1.92 1.82 1.77 1.67
0.63 0.68 0.70 0.74 0.79 0.84 0.86 0.91 0.92 0.90 0.91 0.91 0.91 1.00 1.10 1.12 1.14 1.19 1.22 1.16 1.18 1.17 1.10 1.07 1.04 1.06 1.12 1.18 1.23 1.31 1.43 1.54 1.61 1.76 1.80 1.81 1.88 2.06 2.04 1.82 1.67 1.59 1.54
0.62 0.68 0.67 0.68 0.72 0.76 0.80 0.83 0.86 0.85 0.84 0.83 0.86 0.93 0.98 1.03 1.03 1.05 1.09 1.13 1.16 1.18 1.15 1.14 1.11 1.11 1.17 1.22 1.27 1.38 1.52 1.58 1.67 1.77 1.81 1.83 1.89 1.99 1.94 1.69 1.50 1.47 1.38
0.60 0.63 0.65 0.63 0.67 0.73 0.77 0.81 0.84 0.85 0.84 0.80 0.83 0.94 1.07 1.07 1.04 1.01 1.05 1.09 1.14 1.18 1.21 1.24 1.23 1.24 1.26 1.31 1.37 1.43 1.54 1.61 1.68 1.80 1.83 1.78 1.76 1.71 1.54 1.47 1.41 1.39 1.40
0.55 0.56 0.56 0.58 0.62 0.68 0.74 0.78 0.81 0.83 0.82 0.80 0.79 0.87 0.98 0.91 0.89 0.92 0.97 1.00 1.02 1.07 1.14 1.25 1.28 1.28 1.40 1.58 1.74 1.81 1.73 1.66 1.66 1.80 1.83 1.69 1.58 1.48 1.42 1.45 1.43 1.44 1.45
0.51 0.52 0.53 0.55 0.59 0.66 0.70 0.69 0.72 0.76 0.78 0.77 0.76 0.77 0.79 0.81 0.81 0.83 0.86 0.88 0.90 0.93 0.98 1.09 1.20 1.20 1.25 1.49 1.77 2.12 2.24 2.00 1.86 1.94 2.00 1.82 1.60 1.50 1.51 1.53 1.44 1.44 1.40
0.49 0.51 0.53 0.55 0.57 0.60 0.62 0.64 0.67 0.70 0.72 0.71 0.70 0.69 0.71 0.75 0.76 0.75 0.77 0.79 0.81 0.83 0.87 0.97 1.08 1.12 1.17 1.40 1.63 1.81 1.97 2.10 2.28 2.27 2.18 2.14 1.86 1.63 1.58 1.54 1.41 1.33 1.33
0.49 0.51 0.53 0.55 0.56 0.57 0.59 0.61 0.62 0.64 0.66 0.66 0.66 0.66 0.66 0.68 0.69 0.69 0.70 0.72 0.74 0.75 0.74 0.81 0.96 1.08 1.17 1.32 1.51 1.66 1.78 1.93 2.06 2.11 2.06 1.98 1.78 1.58 1.55 1.52 1.40 1.31 1.29
0.47 0.49 0.51 0.53 0.54 0.54 0.56 0.58 0.59 0.61 0.63 0.64 0.64 0.65 0.67 0.67 0.67 0.68 0.69 0.70 0.72 0.70 0.67 0.70 0.77 0.92 1.07 1.22 1.31 1.48 1.64 1.61 1.46 1.42 1.65 1.78 1.68 1.48 1.47 1.55 1.43 1.37 1.33